[Date Prev][Date Next][Thread Prev][Thread Next] - [Date Index][Thread Index][Author Index]

2 Line ISS Keps 12-29



ISS
1 25544U 98067A   01363.16643519  .00058327  00000-0  67594-3 0  8985
2 25544  51.6386 187.5767 0002669  75.7849  85.8640 15.61235181177509


----
Via the sarex mailing list at AMSAT.ORG courtesy of AMSAT-NA.
To unsubscribe, send "unsubscribe sarex" to Majordomo@amsat.org



AMSAT Top AMSAT Home